Weather History for Pittsburgh, PA

Change the Weather History Date:

Friday, January 10, 2014

  Actual Average Record
Temperature  
Mean Temperature 39 °F 28 °F  
Max Temperature 46 °F 35 °F 60 °F (1924)
Min Temperature 31 °F 21 °F -12 °F (1875)
Degree Days  
Heating Degree Days 26 37  
Month to date heating degree days 435 366  
Since 1 July heating degree days 2552 2541  
Cooling Degree Days 0 0  
Month to date cooling degree days 0 0  
Year to date cooling degree days 0 0  
Moisture  
Dew Point 36 °F    
Average Humidity 89    
Maximum Humidity 96    
Minimum Humidity 82    
Precipitation  
Precipitation 0.03 in 0.09 in 1.03 in (1895)
Month to date precipitation 0.76 0.88  
Year to date precipitation 0.76 0.88  
Snow  
Snow 0.30 in 0.30 in 2.90 in (1984)
Month to date snowfall 6.3 3.4  
Since 1 July snowfall 30.7 14.2  
Snow Depth 0.00 in    
Sea Level Pressure  
Sea Level Pressure 30.22 in    
Wind  
Wind Speed 5 mph (SE)    
Max Wind Speed 9 mph    
Max Gust Speed 14 mph    
Visibility 8 miles    
Events Rain , Snow    
T = Trace of Precipitation, MM = Missing Value Source: NWS Daily Summary

Daily Weather History Graph

Daily Weather History Graph

Search for Another Location

Airport:

Trip Planner

Search our weather history database for the weather conditions in past years. The results will help you decide how hot, cold, wet, or windy it might be!

Date:

Astronomy

Jan. 10, 2014 Rise Set
Actual Time 7:43 AM EST 5:13 PM EST
Civil Twilight 7:13 AM EST 5:43 PM EST
Nautical Twilight 6:39 AM EST 6:17 PM EST
Astronomical Twilight 6:06 AM EST 6:50 PM EST
Moon 1:16 PM EST (1/10) 2:49 AM EST (1/10)
Length of Visible Light 10h 30m
Length of Day
9h 29m
Waxing Gibbous, 75% of the Moon is Illuminated
Jan 10
Waxing Gibbous
Jan 15
Full
Jan 24
Last Quarter
Jan 30
New
Feb 6
First Quarter

Hourly Weather History & Observations

Time (EST) Temp. Windchill Dew Point Humidity Pressure Visibility Wind Dir Wind Speed Gust Speed Precip Events Conditions
12:00 AM 32.0 °F 28.7 °F 24.8 °F 75% 30.33 in 2.0 mi SSE 3.5 mph - 0.00 in Snow Light Snow
12:22 AM 30.2 °F 26.7 °F 26.6 °F 86% 30.31 in 4.0 mi SE 3.5 mph - 0.01 in Snow Light Snow
12:51 AM 30.9 °F - 27.0 °F 85% 30.37 in 6.0 mi Calm Calm - 0.02 in Snow Light Snow
1:51 AM 32.0 °F 28.7 °F 28.0 °F 85% 30.36 in 6.0 mi SE 3.5 mph - 0.00 in   Overcast
2:24 AM 32.0 °F 26.4 °F 30.2 °F 93% 30.29 in 2.0 mi SE 5.8 mph - 0.00 in Rain Light Freezing Rain
2:39 AM 32.0 °F 28.7 °F 30.2 °F 93% 30.29 in 3.0 mi SSE 3.5 mph - 0.00 in   Light Freezing Drizzle
2:51 AM 32.0 °F 26.4 °F 30.9 °F 96% 30.35 in 3.0 mi SSE 5.8 mph - 0.00 in Rain Light Freezing Rain
3:13 AM 33.8 °F 28.6 °F 30.2 °F 87% 30.28 in 5.0 mi SSE 5.8 mph - 0.00 in   Overcast
3:51 AM 33.1 °F 28.7 °F 30.9 °F 92% 30.33 in 7.0 mi SE 4.6 mph - 0.00 in   Overcast
4:51 AM 33.1 °F 30.0 °F 32.0 °F 96% 30.34 in 5.0 mi South 3.5 mph - 0.00 in   Light Drizzle
5:51 AM 33.1 °F - 32.0 °F 96% 30.31 in 6.0 mi Calm Calm - 0.00 in   Overcast
6:51 AM 34.0 °F 29.8 °F 32.0 °F 92% 30.32 in 8.0 mi SSE 4.6 mph - N/A   Overcast
7:51 AM 35.1 °F 31.0 °F 30.9 °F 85% 30.32 in 8.0 mi SSE 4.6 mph - N/A   Overcast
8:07 AM 33.8 °F 30.8 °F 32.0 °F 93% 30.26 in 8.0 mi SSE 3.5 mph - N/A   Overcast
8:39 AM 35.6 °F 31.7 °F 32.0 °F 87% 30.26 in 6.0 mi SSE 4.6 mph - 0.00 in   Light Drizzle
8:51 AM 35.1 °F 32.2 °F 32.0 °F 89% 30.33 in 6.0 mi SSE 3.5 mph - 0.00 in   Overcast
9:51 AM 36.0 °F 30.3 °F 33.1 °F 89% 30.34 in 6.0 mi South 6.9 mph - 0.00 in   Overcast
10:51 AM 37.9 °F 34.4 °F 36.0 °F 93% 30.33 in 5.0 mi South 4.6 mph - 0.00 in   Overcast
11:51 AM 39.9 °F 36.7 °F 37.9 °F 93% 30.29 in 7.0 mi South 4.6 mph - N/A   Overcast
12:22 PM 41.0 °F 36.4 °F 37.4 °F 87% 30.21 in 8.0 mi SSW 6.9 mph - N/A   Overcast
12:51 PM 42.1 °F 37.1 °F 39.0 °F 89% 30.24 in 10.0 mi South 8.1 mph - N/A   Overcast
1:12 PM 42.8 °F 37.5 °F 39.2 °F 87% 30.18 in 10.0 mi South 9.2 mph - N/A   Overcast
1:51 PM 44.1 °F 40.1 °F 39.9 °F 85% 30.23 in 10.0 mi South 6.9 mph - N/A   Overcast
2:22 PM 44.6 °F 41.4 °F 39.2 °F 81% 30.16 in 10.0 mi SSE 5.8 mph - N/A   Overcast
2:51 PM 45.0 °F 41.2 °F 41.0 °F 86% 30.19 in 10.0 mi SSE 6.9 mph - N/A   Overcast
3:51 PM 46.0 °F 43.1 °F 41.0 °F 83% 30.17 in 10.0 mi SE 5.8 mph - N/A   Mostly Cloudy
4:51 PM 46.0 °F 43.9 °F 41.0 °F 83% 30.15 in 10.0 mi SE 4.6 mph - N/A   Mostly Cloudy
5:06 PM 44.6 °F 40.7 °F 41.0 °F 87% 30.10 in 10.0 mi SE 6.9 mph - N/A   Mostly Cloudy
5:51 PM 44.1 °F 40.1 °F 41.0 °F 89% 30.12 in 10.0 mi SE 6.9 mph - N/A   Overcast
6:08 PM 46.4 °F 42.9 °F 42.8 °F 87% 30.08 in 10.0 mi SE 6.9 mph - N/A   Overcast
6:51 PM 43.0 °F 40.3 °F 41.0 °F 93% 30.11 in 10.0 mi ESE 4.6 mph - N/A   Overcast
7:13 PM 44.6 °F 42.2 °F 42.8 °F 93% 30.04 in 10.0 mi East 4.6 mph - N/A   Mostly Cloudy
7:51 PM 43.0 °F 39.5 °F 41.0 °F 93% 30.06 in 8.0 mi East 5.8 mph - N/A   Mostly Cloudy
8:51 PM 43.0 °F 39.5 °F 41.0 °F 93% 30.03 in 8.0 mi East 5.8 mph - N/A   Overcast
9:51 PM 42.1 °F 38.4 °F 39.9 °F 92% 29.99 in 10.0 mi East 5.8 mph - N/A   Overcast
10:51 PM 43.0 °F 41.3 °F 41.0 °F 93% 29.96 in 10.0 mi ESE 3.5 mph - N/A   Overcast
11:51 PM 43.0 °F 40.3 °F 41.0 °F 93% 29.91 in 10.0 mi ESE 4.6 mph - N/A   Overcast